{"data":{"norad_id":63809,"epoch":"2026-05-25T03:36:47.729088Z","epoch_age_seconds":76118,"freshness":"FRESH","line1":"1 63809U 25092F   26145.15055242  .00024513  00000+0  89685-3 0  9999","line2":"2 63809  43.0004 101.1451 0001108 273.0321  87.0404 15.27597666 60306","mean_motion":15.27597666,"eccentricity":0.0001108,"inclination_deg":43.0004,"raan_deg":101.1451,"arg_perigee_deg":273.0321,"mean_anomaly_deg":87.0404,"bstar":0.00089685,"rev_number":6030,"period_min":94.265658559863,"perigee_km":482.23598463177,"apogee_km":483.75641174849,"semimajor_km":6861.1331981901,"source":"CELESTRAK","updated_at":"2026-05-25T13:38:20.140081Z"}}